1521118800.86,28197,12.38,72460.5,1.99,0.55,0.55,0,*79
1521118802.11,28198,12.44,72460.5,2.01,0.41,0.47,0,*72
1521118803.32,28199,12.44,72464.0,2.01,0.43,0.47,0,*71
1521118804.54,28200,12.44,72462.5,2.01,0.43,0.55,0,*71
1521118805.78,28201,12.44,72460.0,2.01,0.41,0.55,0,*72
1521118806.99,28202,12.44,72460.5,2.01,0.43,0.47,0,*70
1521118808.21,28203,12.44,72462.3,2.01,0.43,0.47,0,*71
1521118809.4,28204,12.44,72462.8,1.99,0.43,0.47,0,*74
1521118810.58,28205,12.44,72462.3,1.99,0.43,0.47,0,*75
1521118811.77,28206,12.44,72462.5,1.99,0.43,0.47,0,*76
1521118812.99,28207,12.44,72460.5,2.01,0.43,0.47,0,*75
1521118814.2,28208,12.44,72460.5,2.01,0.43,0.55,0,*79
1521118815.45,28209,12.44,72460.3,2.01,0.47,0.55,0,*7C
1521118816.66,28210,12.44,72462.0,2.01,0.43,0.47,0,*73
1521118817.88,28211,12.44,72460.5,2.01,0.43,0.47,0,*72
1521118819.09,28212,12.44,72462.0,2.01,0.43,0.47,0,*71
1521118820.33,28213,12.44,72464.0,2.01,0.41,0.47,0,*72
1521118821.58,28214,12.44,72460.8,2.01,0.41,0.47,0,*75
1521118822.82,28215,12.44,72462.8,2.01,0.41,0.47,0,*74
1521118824.04,28216,12.44,72460.5,1.99,0.47,0.47,0,*73
1521118825.25,28217,12.44,72466.3,1.97,0.37,0.43,0,*7F
1521118826.47,28218,12.44,72462.3,1.99,0.41,0.47,0,*7B
1521118827.69,28219,12.44,72462.8,1.99,0.41,0.47,0,*7A
1521118828.93,28220,12.44,72462.5,2.01,0.41,0.55,0,*71
1521118830.15,28221,12.44,72462.0,1.99,0.47,0.55,0,*74
1521118831.34,28222,12.44,72462.0,1.99,0.43,0.47,0,*70
1521118832.53,28223,12.44,72462.8,1.99,0.43,0.47,0,*71
1521118833.74,28224,12.44,72462.5,1.99,0.41,0.47,0,*74
1521118834.96,28225,12.44,72462.3,1.99,0.41,0.47,0,*75
1521118836.17,28226,12.44,72464.5,1.97,0.37,0.43,0,*7D
1521118837.36,28227,12.44,72460.8,1.99,0.33,0.43,0,*76
1521118838.52,28228,12.44,72464.0,1.99,0.43,0.43,0,*7E
1521118839.76,28229,12.44,72462.3,2.01,0.41,0.47,0,*7B
1521118840.95,28230,12.44,72460.8,1.99,0.43,0.47,0,*73
1521118842.14,28231,12.44,72460.0,1.99,0.41,0.43,0,*74
1521118843.33,28232,12.44,72460.8,1.99,0.41,0.43,0,*77
1521118844.57,28233,12.44,72462.5,1.97,0.29,0.37,0,*75
1521118845.78,28234,12.44,72462.5,1.99,0.37,0.41,0,*72
1521118846.99,28235,12.44,72462.8,1.99,0.41,0.41,0,*72
1521118848.18,28236,12.44,72460.3,1.99,0.41,0.43,0,*73
1521118849.39,28237,12.44,72460.8,1.99,0.41,0.41,0,*70
1521118850.58,28238,12.44,72458.8,1.99,0.43,0.47,0,*7B
1521118851.77,28239,12.44,72460.8,1.99,0.43,0.47,0,*7A
1521118852.99,28240,12.44,72462.5,1.99,0.41,0.51,0,*71
1521118854.2,28241,12.44,72464.3,1.97,0.43,0.51,0,*7C
1521118855.44,28242,12.44,72462.8,1.97,0.51,0.51,0,*7C
1521118856.68,28243,12.44,72460.3,1.97,0.51,0.51,0,*7D
1521118857.9,28244,12.44,72464.0,1.99,0.55,0.55,0,*74
1521118859.15,28245,12.44,72462.0,1.97,0.51,0.51,0,*7B
1521118860.39,28246,12.44,72460.0,1.97,0.51,0.51,0,*78
1521118861.61,28247,12.44,72460.8,1.99,0.47,0.55,0,*74
1521118862.83,28248,12.44,72462.8,1.99,0.47,0.55,0,*7B
1521118864.05,28249,12.44,72460.8,1.99,0.47,0.55,0,*7A
1521118865.27,28250,12.44,72456.0,1.99,0.47,0.55,0,*72
1521118866.49,28251,12.44,72464.3,1.99,0.47,0.55,0,*73
1521118867.71,28252,12.44,72460.5,1.99,0.55,0.55,0,*73
1521118868.95,28253,12.44,72460.3,1.97,0.51,0.51,0,*7C
1521118870.18,28254,12.44,72462.8,1.99,0.55,0.55,0,*75
1521118871.4,28255,12.44,72464.3,1.99,0.55,0.55,0,*74
1521118872.62,28256,12.44,72460.8,1.99,0.47,0.47,0,*77
1521118873.84,28257,12.44,72460.3,1.99,0.47,0.55,0,*75
1521118875.06,28258,12.44,72460.8,1.99,0.47,0.55,0,*7A
1521118876.28,28259,12.44,72466.3,1.99,0.47,0.55,0,*7B
1521118877.5,28260,12.44,72460.8,1.99,0.55,0.55,0,*72
1521118878.72,28261,12.44,72466.8,1.99,0.47,0.59,0,*7C
1521118879.95,28262,12.44,72460.8,1.99,0.55,0.59,0,*7C
1521118881.17,28263,12.44,72466.0,1.99,0.47,0.59,0,*7E
1521118882.39,28264,12.44,72462.8,1.99,0.55,0.59,0,*7A
1521118883.61,28265,12.44,72462.0,1.99,0.55,0.59,0,*7B
1521118884.86,28266,12.44,72460.5,2.01,0.55,0.59,0,*7A
1521118886.11,28267,12.44,72464.8,2.01,0.55,0.55,0,*77
1521118887.36,28268,12.44,72466.0,2.01,0.47,0.55,0,*7B
1521118888.61,28269,12.44,72462.5,2.01,0.55,0.55,0,*79
1521118889.86,28270,12.44,72462.3,2.01,0.55,0.55,0,*71
1521118891.1,28271,12.44,72464.5,2.01,0.47,0.55,0,*73
1521118892.35,28272,12.44,72464.0,2.01,0.55,0.55,0,*73
1521118893.6,28273,12.44,72466.8,2.01,0.47,0.59,0,*7D
1521118894.84,28274,12.44,72462.8,2.01,0.47,0.59,0,*7A
1521118896.09,28275,12.44,72464.3,2.01,0.55,0.59,0,*78
1521118897.31,28276,12.44,72462.8,2.03,0.59,0.63,0,*7C
1521118898.56,28277,12.44,72466.3,2.01,0.47,0.59,0,*79
1521118899.81,28278,12.44,72462.0,2.01,0.55,0.59,0,*75
1521118901.05,28279,12.44,72466.8,2.01,0.55,0.59,0,*74
1521118902.3,28280,12.44,72466.8,2.01,0.55,0.55,0,*7E
1521118903.55,28281,12.44,72468.5,2.01,0.47,0.55,0,*7C
1521118904.77,28282,12.44,72464.3,2.01,0.43,0.55,0,*7B
1521118906.01,28283,12.44,72464.0,2.01,0.47,0.55,0,*7E
1521118907.26,28284,12.44,72466.5,2.01,0.55,0.55,0,*7A
1521118908.51,28285,12.44,72464.8,2.01,0.47,0.55,0,*78
1521118909.73,28286,12.44,72464.5,2.03,0.47,0.59,0,*75
1521118910.98,28287,12.44,72464.3,2.01,0.55,0.55,0,*79
1521118912.23,28288,12.44,72464.0,2.01,0.55,0.59,0,*7A
1521118913.48,28289,12.44,72464.3,2.01,0.41,0.55,0,*72
1521118914.72,28290,12.44,72466.3,2.01,0.55,0.47,0,*7C
1521118915.97,28291,12.44,72466.5,2.01,0.47,0.55,0,*7D
1521118917.22,28292,12.44,72460.8,2.01,0.47,0.55,0,*7E
1521118918.46,28293,12.44,72462.5,2.01,0.47,0.55,0,*7F
1521118919.71,28294,12.44,72466.3,2.01,0.47,0.55,0,*78
1521118920.96,28295,12.44,72464.0,2.01,0.47,0.55,0,*79
1521118922.2,28296,12.44,72460.3,2.01,0.47,0.47,0,*79
1521118923.45,28297,12.44,72462.0,2.01,0.47,0.55,0,*7B
1521118924.67,28298,12.44,72464.0,2.03,0.47,0.51,0,*72
1521118925.9,28299,12.44,72462.8,2.03,0.51,0.59,0,*7C
1521118927.12,28300,12.44,72464.8,2.03,0.51,0.59,0,*7D
1521118928.34,28301,12.44,72460.3,2.03,0.51,0.51,0,*74
1521118929.59,28302,12.44,72462.5,2.01,0.47,0.55,0,*76
1521118930.83,28303,12.44,72458.3,2.01,0.47,0.55,0,*77
1521118932.08,28304,12.44,72464.3,2.01,0.47,0.55,0,*70
1521118933.33,28305,12.44,72464.0,2.01,0.47,0.55,0,*71
1521118934.55,28306,12.44,72462.8,2.03,0.51,0.59,0,*7B
1521118935.77,28307,12.44,72464.0,2.03,0.51,0.51,0,*72
1521118937.02,28308,12.44,72464.8,2.01,0.47,0.55,0,*7C
1521118938.24,28309,12.44,72464.0,2.03,0.59,0.51,0,*74
1521118939.45,28310,12.44,72460.8,2.01,0.43,0.55,0,*71
1521118940.67,28311,12.44,72466.0,2.01,0.43,0.47,0,*73
1521118941.88,28312,12.44,72462.3,2.01,0.43,0.41,0,*76
1521118943.11,28313,12.44,72462.5,2.01,0.41,0.41,0,*75
1521118944.31,28314,12.44,72462.0,2.03,0.43,0.47,0,*74
1521118945.54,28315,12.44,72466.5,2.01,0.29,0.33,0,*78
1521118946.78,28316,12.44,72464.0,2.01,0.29,0.33,0,*7B
1521118947.99,28317,12.44,72462.8,2.03,0.21,0.33,0,*70
1521118949.24,28318,12.44,72460.0,2.01,0.21,0.29,0,*76
1521118950.45,28319,12.44,72460.0,1.99,0.21,0.33,0,*7E
1521118951.66,28320,12.44,72466.0,1.99,0.17,0.33,0,*71
1521118952.87,28321,12.44,72462.3,1.99,0.29,0.33,0,*7D
1521118954.08,28322,12.44,72462.5,1.99,0.33,0.33,0,*75
1521118955.28,28323,12.44,72464.5,1.99,0.33,0.33,0,*74
1521118956.49,28324,12.44,72462.8,1.99,0.33,0.33,0,*73
1521118957.7,28325,12.44,72464.0,1.99,0.33,0.33,0,*72
1521118958.91,28326,12.44,72460.5,1.99,0.33,0.33,0,*71
1521118960.1,28327,12.44,72462.8,1.99,0.29,0.43,0,*7C
1521118961.33,28328,12.44,72462.8,1.97,0.29,0.41,0,*7F
1521118962.53,28329,12.44,72462.3,1.99,0.41,0.43,0,*7C
1521118963.76,28330,12.44,72462.5,1.97,0.41,0.41,0,*78
1521118964.99,28331,12.44,72462.0,1.97,0.37,0.41,0,*78
1521118966.22,28332,12.44,72462.0,1.97,0.37,0.41,0,*7B
1521118967.41,28333,12.44,72462.5,1.99,0.43,0.47,0,*71
1521118968.61,28334,12.44,72462.0,1.99,0.47,0.43,0,*76
1521118969.79,28335,12.44,72462.5,1.99,0.43,0.47,0,*77
1521118971.01,28336,12.44,72462.5,1.99,0.41,0.51,0,*71
1521118972.25,28337,12.44,72464.5,1.97,0.41,0.51,0,*7E
1521118973.49,28338,12.44,72462.3,1.97,0.41,0.51,0,*71
1521118974.71,28339,12.44,72460.3,1.99,0.55,0.55,0,*7F
1521118975.93,28340,12.44,72458.8,1.99,0.47,0.55,0,*72
1521118977.15,28341,12.44,72466.5,1.99,0.47,0.55,0,*73
1521118978.37,28342,12.44,72466.3,1.99,0.47,0.55,0,*70
1521118979.58,28343,12.44,72462.0,1.97,0.43,0.51,0,*7F
1521118980.81,28344,12.44,72460.5,1.99,0.55,0.55,0,*75
1521118982.02,28345,12.44,72464.5,1.97,0.43,0.51,0,*79
1521118983.24,28346,12.44,72462.8,1.99,0.55,0.55,0,*77
1521118984.46,28347,12.44,72462.8,1.99,0.47,0.55,0,*75
1521118985.68,28348,12.44,72462.0,1.99,0.47,0.55,0,*7A
1521118986.9,28349,12.44,72460.3,1.99,0.47,0.55,0,*7B
1521118988.12,28350,12.44,72462.0,1.99,0.47,0.55,0,*73
1521118989.34,28351,12.44,72460.3,1.99,0.47,0.47,0,*71
1521118990.56,28352,12.44,72462.0,1.99,0.47,0.55,0,*71
1521118991.78,28353,12.44,72460.5,1.99,0.47,0.55,0,*70
1521118993.0,28354,12.44,72462.8,1.99,0.47,0.55,0,*77
1521118994.21,28355,12.44,72460.8,1.97,0.43,0.51,0,*78
1521118995.42,28356,12.44,72462.5,1.97,0.43,0.51,0,*7B
1521118996.64,28357,12.44,72462.5,1.99,0.47,0.47,0,*77
1521118997.86,28358,12.44,72460.5,1.99,0.47,0.55,0,*7B
1521118999.05,28359,12.44,72460.8,1.99,0.43,0.55,0,*7E
1521119000.27,28360,12.44,72462.3,1.99,0.47,0.47,0,*73
1521119001.49,28361,12.44,72462.5,1.97,0.51,0.43,0,*7F
1521119002.71,28362,12.44,72460.0,1.99,0.47,0.47,0,*71
1521119003.93,28363,12.44,72462.0,1.99,0.47,0.55,0,*73
1521119005.11,28364,12.44,72460.0,1.99,0.43,0.47,0,*73
1521119006.35,28365,12.44,72460.0,1.97,0.41,0.51,0,*79
1521119007.57,28366,12.44,72460.8,2.01,0.43,0.55,0,*70
1521119008.76,28367,12.44,72462.0,1.99,0.43,0.47,0,*70
1521119009.94,28368,12.44,72460.8,1.99,0.43,0.55,0,*7C
1521119011.13,28369,12.44,72462.3,1.99,0.43,0.55,0,*7D
1521119012.32,28370,12.44,72464.0,1.99,0.43,0.47,0,*76
1521119013.51,28371,12.44,72460.5,1.99,0.43,0.47,0,*77
1521119014.7,28372,12.44,72464.0,1.99,0.47,0.43,0,*74
1521119015.89,28373,12.5,72466.3,1.99,0.43,0.47,0,*75
1521119017.08,28374,12.44,72460.8,1.99,0.43,0.55,0,*71
1521119018.26,28375,12.44,72462.0,1.99,0.43,0.47,0,*73
1521119019.45,28376,12.44,72460.8,1.99,0.43,0.55,0,*73
1521119020.64,28377,12.44,72462.3,1.99,0.43,0.47,0,*71
1521119021.86,28378,12.44,72464.0,1.99,0.41,0.47,0,*7C
1521119023.04,28379,12.5,72464.3,1.99,0.43,0.47,0,*7F
1521119024.23,28380,12.44,72462.3,1.99,0.43,0.47,0,*79
1521119025.45,28381,12.44,72460.0,1.99,0.47,0.47,0,*7C
1521119026.64,28382,12.44,72460.3,1.99,0.43,0.47,0,*7B
1521119027.88,28383,12.5,72464.3,1.97,0.41,0.51,0,*71
1521119029.09,28384,12.44,72460.0,1.97,0.41,0.43,0,*75
1521119030.31,28385,12.44,72460.0,1.97,0.41,0.43,0,*74
1521119031.53,28386,12.5,72464.5,1.99,0.47,0.55,0,*78
1521119032.69,28387,12.44,72464.0,1.99,0.43,0.43,0,*7A
1521119033.87,28388,12.44,72462.3,1.97,0.43,0.43,0,*7B
1521119035.09,28389,12.5,72466.3,1.99,0.47,0.47,0,*74
1521119036.31,28390,12.5,72464.3,1.99,0.47,0.55,0,*7F
1521119037.54,28391,12.44,72464.0,1.99,0.55,0.55,0,*7D
1521119038.78,28392,12.44,72460.8,1.97,0.51,0.51,0,*70
1521119040.0,28393,12.5,72464.3,1.99,0.55,0.55,0,*7F
1521119041.22,28394,12.44,72464.0,1.99,0.47,0.55,0,*7B
1521119042.43,28395,12.44,72462.5,1.97,0.43,0.51,0,*74
1521119043.66,28396,12.44,72462.8,1.99,0.55,0.55,0,*7A
1521119044.88,28397,12.44,72464.3,1.99,0.55,0.55,0,*7B
1521119046.09,28398,12.44,72464.8,1.99,0.55,0.67,0,*75
1521119047.34,28399,12.44,72460.8,2.01,0.55,0.59,0,*7B
1521119048.59,28400,12.44,72460.0,2.01,0.55,0.59,0,*7C
1521119049.84,28401,12.44,72462.0,2.01,0.55,0.59,0,*7D
1521119051.08,28402,12.5,72464.5,2.01,0.55,0.67,0,*73
1521119052.31,28403,12.5,72466.0,1.99,0.55,0.59,0,*7D
1521119053.56,28404,12.44,72460.8,2.01,0.55,0.59,0,*78
1521119054.8,28405,12.5,72464.8,2.01,0.47,0.59,0,*7A
1521119056.05,28406,12.44,72462.3,2.01,0.55,0.59,0,*7A
1521119057.3,28407,12.44,72460.0,2.01,0.47,0.59,0,*78
1521119058.54,28408,12.5,72464.3,2.01,0.47,0.55,0,*7B
1521119059.77,28409,12.5,72464.0,2.03,0.47,0.51,0,*7C
1521119061.01,28410,12.5,72470.3,2.01,0.41,0.47,0,*77
1521119062.23,28411,12.5,72464.3,2.01,0.41,0.43,0,*72
1521119063.46,28412,12.5,72464.3,2.01,0.33,0.41,0,*76
1521119064.68,28413,12.5,72466.3,2.01,0.33,0.43,0,*75
1521119065.92,28414,12.44,72462.8,1.97,0.29,0.37,0,*76
1521119067.12,28415,12.44,72460.5,1.99,0.33,0.41,0,*73
1521119068.31,28416,12.44,72462.3,1.99,0.33,0.43,0,*72
1521119069.52,28417,12.5,72462.8,1.99,0.33,0.41,0,*71
1521119070.73,28418,12.5,72466.5,1.99,0.33,0.41,0,*7E
1521119071.96,28419,12.44,72464.0,1.97,0.29,0.41,0,*7A
1521119073.17,28420,12.5,72466.0,1.99,0.29,0.41,0,*7E
1521119074.41,28421,12.5,72464.8,1.97,0.29,0.41,0,*71
1521119075.62,28422,12.5,72464.3,1.99,0.25,0.41,0,*70
1521119076.86,28423,12.5,72464.0,1.97,0.29,0.37,0,*72
1521119078.1,28424,12.44,72460.5,1.97,0.29,0.37,0,*75
1521119079.28,28425,12.5,72462.0,1.99,0.33,0.43,0,*72
1521119080.52,28426,12.5,72466.0,1.97,0.29,0.37,0,*77
1521119081.76,28427,12.5,72464.5,1.97,0.37,0.37,0,*79
1521119083.0,28428,12.5,72466.3,1.97,0.29,0.37,0,*79
1521119084.23,28429,12.5,72464.3,1.97,0.37,0.41,0,*76
1521119085.46,28430,12.5,72462.3,1.97,0.37,0.41,0,*7E
1521119086.7,28431,12.5,72466.0,1.97,0.37,0.37,0,*7E
1521119087.93,28432,12.5,72460.5,1.97,0.37,0.37,0,*7D
1521119089.17,28433,12.5,72464.8,1.97,0.37,0.41,0,*7D
1521119090.38,28434,12.5,72464.5,1.97,0.41,0.43,0,*79
1521119091.59,28435,12.5,72464.0,1.97,0.41,0.43,0,*78
1521119092.81,28436,12.5,72466.0,1.97,0.41,0.43,0,*7B
1521119094.02,28437,12.5,72462.0,1.97,0.41,0.43,0,*7A
1521119095.24,28438,12.5,72460.8,1.97,0.41,0.43,0,*75
1521119096.45,28439,12.44,72462.8,1.97,0.37,0.43,0,*75
1521119097.66,28440,12.5,72464.8,1.95,0.37,0.41,0,*7B
1521119098.87,28441,12.5,72460.8,1.95,0.37,0.47,0,*7C
1521119100.09,28442,12.5,72464.5,1.95,0.37,0.47,0,*7F
1521119101.31,28443,12.44,72462.8,1.95,0.41,0.47,0,*7F
1521119102.52,28444,12.5,72466.5,1.97,0.43,0.51,0,*7F
1521119103.7,28445,12.5,72466.0,1.97,0.43,0.43,0,*7D
1521119104.91,28446,12.5,72466.8,1.97,0.43,0.51,0,*7D
1521119106.16,28447,12.5,72464.3,1.97,0.51,0.51,0,*7F
1521119107.37,28448,12.5,72464.5,1.97,0.43,0.51,0,*73
1521119108.58,28449,12.5,72462.3,1.97,0.43,0.51,0,*72
1521119109.8,28450,12.5,72466.0,1.95,0.47,0.47,0,*7B
1521119111.01,28451,12.44,72462.8,1.95,0.41,0.47,0,*7C
1521119112.23,28452,12.5,72462.5,1.95,0.47,0.51,0,*7E
1521119113.45,28453,12.5,72466.5,1.95,0.41,0.51,0,*79
1521119114.69,28454,12.5,72460.8,1.97,0.51,0.55,0,*79
1521119115.92,28455,12.5,72466.0,1.99,0.47,0.55,0,*71
1521119117.14,28456,12.5,72460.8,1.95,0.47,0.47,0,*7D
1521119118.36,28457,12.44,72458.8,1.95,0.47,0.47,0,*7C
1521119119.58,28458,12.5,72464.8,1.95,0.47,0.47,0,*73
1521119120.8,28459,12.5,72462.8,1.95,0.41,0.47,0,*74
1521119122.01,28460,12.5,72464.5,1.97,0.43,0.51,0,*79
1521119123.23,28461,12.5,72464.0,1.95,0.47,0.47,0,*79
1521119124.45,28462,12.5,72462.3,1.95,0.47,0.47,0,*7A
1521119125.69,28463,12.5,72466.3,1.97,0.51,0.51,0,*79
1521119126.91,28464,12.5,72464.3,1.95,0.47,0.47,0,*7C
1521119128.15,28465,12.5,72462.5,1.97,0.51,0.51,0,*7F
1521119129.4,28466,12.5,72464.8,1.97,0.51,0.55,0,*78
1521119130.64,28467,12.5,72466.8,1.97,0.55,0.55,0,*7D
1521119131.86,28468,12.5,72466.0,1.99,0.59,0.59,0,*7C
1521119133.08,28469,12.5,72464.3,1.99,0.55,0.55,0,*7D
1521119134.29,28470,12.5,72462.0,1.99,0.59,0.67,0,*78
1521119135.53,28471,12.5,72462.8,1.97,0.55,0.63,0,*7F
1521119136.78,28472,12.5,72462.0,1.97,0.55,0.59,0,*75
1521119137.99,28473,12.5,72464.8,1.99,0.59,0.67,0,*7B
1521119139.23,28474,12.5,72466.5,2.01,0.59,0.67,0,*7E
1521119140.46,28475,12.5,72464.0,2.01,0.59,0.67,0,*7F
1521119141.68,28476,12.5,72462.0,1.99,0.59,0.59,0,*73
1521119142.9,28477,12.5,72466.5,1.99,0.59,0.59,0,*72
1521119144.11,28478,12.5,72466.5,1.99,0.59,0.67,0,*70
1521119145.35,28479,12.5,72466.5,2.01,0.59,0.59,0,*7E
1521119146.59,28480,12.5,72464.3,2.01,0.59,0.67,0,*75
1521119147.8,28481,12.5,72462.8,1.99,0.59,0.59,0,*7B
1521119149.02,28482,12.5,72460.5,1.99,0.59,0.59,0,*78
1521119150.23,28483,12.5,72466.0,1.99,0.59,0.67,0,*74
1521119151.48,28484,12.5,72466.8,1.97,0.55,0.55,0,*70
1521119152.7,28485,12.5,72468.3,1.99,0.51,0.59,0,*77
1521119153.92,28486,12.5,72464.0,1.99,0.55,0.59,0,*70
1521119155.14,28487,12.5,72462.8,1.99,0.55,0.59,0,*71
1521119156.39,28488,12.5,72464.8,2.01,0.55,0.59,0,*7C
1521119157.64,28489,12.5,72464.0,2.01,0.47,0.59,0,*7E
1521119158.88,28490,12.5,72464.5,2.01,0.55,0.59,0,*75
1521119160.13,28491,12.5,72462.5,2.01,0.55,0.59,0,*74
1521119161.38,28492,12.5,72460.8,2.01,0.55,0.59,0,*77
1521119162.63,28493,12.5,72464.0,2.01,0.55,0.59,0,*76
1521119163.88,28494,12.5,72464.5,2.01,0.47,0.59,0,*72
1521119165.13,28495,12.5,72464.3,2.01,0.55,0.59,0,*70
1521119166.37,28496,12.5,72466.3,2.01,0.47,0.59,0,*70
1521119167.62,28497,12.5,72464.8,2.01,0.47,0.47,0,*7E
1521119168.84,28498,12.5,72466.0,1.99,0.47,0.55,0,*70
1521119170.06,28499,12.5,72464.5,1.99,0.47,0.47,0,*72
1521119171.25,28500,12.5,72464.5,1.99,0.43,0.55,0,*74
1521119172.46,28501,12.5,72466.8,2.01,0.43,0.55,0,*77
1521119173.68,28502,12.5,72466.3,1.99,0.47,0.55,0,*72
1521119174.9,28503,12.5,72464.8,1.99,0.47,0.55,0,*73
1521119176.12,28504,12.5,72464.0,1.99,0.47,0.55,0,*74
1521119177.31,28505,12.5,72464.0,1.99,0.43,0.55,0,*71
1521119178.53,28506,12.5,72466.5,1.99,0.47,0.55,0,*76
1521119179.72,28507,12.5,72464.8,1.99,0.43,0.55,0,*73
1521119180.91,28508,12.5,72464.3,1.99,0.43,0.55,0,*7C
1521119182.13,28509,12.5,72464.8,1.99,0.47,0.55,0,*79
1521119183.37,28510,12.5,72464.0,1.97,0.41,0.51,0,*7D
1521119184.59,28511,12.5,72464.5,1.99,0.47,0.47,0,*73
1521119185.81,28512,12.5,72466.8,1.99,0.47,0.47,0,*70
1521119187.03,28513,12.5,72464.5,1.99,0.47,0.47,0,*71
1521119188.24,28514,12.5,72468.0,1.99,0.47,0.47,0,*76
1521119189.47,28515,12.5,72466.3,1.99,0.47,0.55,0,*74
1521119190.65,28516,12.5,72466.8,1.99,0.43,0.47,0,*70
1521119191.87,28517,12.5,72466.0,1.99,0.47,0.55,0,*76
1521119193.09,28518,12.5,72464.5,1.99,0.47,0.47,0,*7A
1521119194.28,28519,12.5,72464.3,1.99,0.43,0.47,0,*7F
1521119195.5,28520,12.5,72466.0,1.97,0.51,0.43,0,*7C
1521119196.68,28521,12.5,72464.5,1.99,0.43,0.55,0,*77
1521119197.87,28522,12.5,72460.3,1.99,0.43,0.55,0,*74
1521119199.08,28523,12.5,72460.5,1.97,0.43,0.47,0,*78
1521119200.32,28524,12.5,72462.5,1.97,0.41,0.41,0,*7B
1521119201.51,28525,12.5,72466.8,1.99,0.43,0.47,0,*70
1521119202.69,28526,12.5,72464.0,1.99,0.43,0.47,0,*73
1521119203.88,28527,12.5,72464.3,1.99,0.41,0.43,0,*74
1521119205.04,28528,12.5,72462.3,1.99,0.43,0.43,0,*79
1521119206.23,28529,12.5,72464.3,1.99,0.41,0.43,0,*7A
1521119207.43,28530,12.5,72462.8,1.99,0.41,0.43,0,*72
1521119208.66,28531,12.5,72464.5,1.97,0.37,0.37,0,*7F
1521119209.89,28532,12.5,72460.3,1.97,0.37,0.41,0,*7D
1521119211.06,28533,12.5,72464.5,1.99,0.43,0.43,0,*73
1521119212.27,28534,12.5,72464.5,1.97,0.41,0.43,0,*78
1521119213.46,28535,12.5,72460.0,1.99,0.43,0.47,0,*71
1521119214.67,28536,12.5,72462.3,1.97,0.37,0.43,0,*7B
1521119215.88,28537,12.5,72462.8,1.97,0.41,0.43,0,*7B
1521119217.1,28538,12.5,72460.0,1.99,0.47,0.55,0,*7B
1521119218.35,28539,12.5,72466.0,1.97,0.51,0.51,0,*77
1521119219.59,28540,12.5,72462.5,1.97,0.51,0.51,0,*79
1521119220.81,28541,12.5,72460.8,1.99,0.47,0.55,0,*75
1521119222.03,28542,12.5,72466.5,1.95,0.41,0.47,0,*7F
1521119223.24,28543,12.5,72460.8,1.95,0.41,0.47,0,*7E
1521119224.45,28544,12.5,72464.0,1.97,0.43,0.51,0,*7E
1521119225.7,28545,12.5,72462.5,1.97,0.51,0.51,0,*7C
1521119226.94,28546,12.5,72462.0,1.97,0.51,0.51,0,*7F
1521119228.18,28547,12.5,72462.8,1.97,0.51,0.51,0,*7E
1521119229.42,28548,12.5,72460.0,1.97,0.51,0.51,0,*71
1521119230.64,28549,12.5,72462.3,1.99,0.47,0.55,0,*7D
1521119231.88,28550,12.5,72462.5,1.97,0.51,0.51,0,*78
1521119233.09,28551,12.5,72464.3,1.97,0.43,0.51,0,*7A
1521119234.28,28552,12.5,72460.3,1.97,0.43,0.43,0,*7A
1521119235.52,28553,12.5,72460.3,1.97,0.41,0.51,0,*7A
1521119236.73,28554,12.5,72460.5,1.97,0.43,0.51,0,*7F
1521119237.91,28555,12.5,72462.3,1.97,0.43,0.43,0,*7D
1521119239.1,28556,12.5,72464.8,1.97,0.43,0.43,0,*7E
1521119240.31,28557,12.5,72464.0,1.95,0.37,0.47,0,*7A
1521119241.52,28558,12.5,72466.0,1.97,0.43,0.55,0,*77
1521119242.71,28559,12.5,72460.5,1.97,0.43,0.43,0,*71
1521119243.92,28560,12.5,72464.0,1.97,0.41,0.43,0,*79
1521119245.11,28561,12.5,72464.8,1.97,0.43,0.43,0,*7A
1521119246.29,28562,12.5,72462.5,1.97,0.43,0.43,0,*79
1521119247.51,28563,12.5,72462.8,1.95,0.41,0.47,0,*7C
1521119248.73,28564,12.5,72460.0,1.95,0.41,0.47,0,*7B
1521119249.94,28565,12.5,72458.3,1.95,0.41,0.41,0,*7C
1521119251.18,28566,12.5,72464.5,1.97,0.37,0.51,0,*7D
1521119252.39,28567,12.5,72462.8,1.97,0.41,0.43,0,*7E
1521119253.58,28568,12.5,72460.8,1.97,0.43,0.43,0,*73
1521119254.79,28569,12.5,72464.0,1.95,0.37,0.41,0,*71
1521119256.0,28570,12.5,72462.8,1.95,0.33,0.41,0,*7D
1521119257.21,28571,12.5,72464.3,1.95,0.37,0.41,0,*78
1521119258.43,28572,12.5,72464.8,1.95,0.41,0.47,0,*7C
1521119259.65,28573,12.5,72464.0,1.95,0.47,0.47,0,*7B
1521119260.87,28574,12.5,72460.3,1.95,0.47,0.47,0,*7C
1521119262.09,28575,12.5,72464.8,1.95,0.47,0.47,0,*7D
1521119263.3,28576,12.5,72462.8,1.95,0.41,0.41,0,*7E
1521119264.51,28577,12.5,72462.0,1.95,0.37,0.41,0,*7E
1521119265.73,28578,12.5,72464.8,1.95,0.41,0.47,0,*76
1521119266.94,28579,12.5,72466.0,1.95,0.41,0.41,0,*71
1521119268.15,28580,12.5,72462.3,1.95,0.37,0.41,0,*76
1521119269.36,28581,12.5,72466.3,1.95,0.41,0.41,0,*76
1521119270.57,28582,12.5,72462.8,1.95,0.37,0.41,0,*74
1521119271.78,28583,12.5,72466.8,1.95,0.37,0.41,0,*75
1521119273.0,28584,12.5,72462.3,1.95,0.33,0.47,0,*70
1521119274.24,28585,12.5,72458.3,1.93,0.37,0.47,0,*73
1521119275.46,28586,12.5,72464.8,1.95,0.37,0.47,0,*76
1521119276.67,28587,12.5,72466.3,1.95,0.37,0.47,0,*77
1521119277.91,28588,12.5,72462.3,1.93,0.41,0.47,0,*7F
1521119279.13,28589,12.5,72462.0,1.95,0.41,0.47,0,*78
1521119280.35,28590,12.5,72460.0,1.95,0.47,0.47,0,*76
1521119281.57,28591,12.5,72462.3,1.95,0.41,0.47,0,*71
1521119282.78,28592,12.5,72460.5,1.95,0.41,0.41,0,*74
1521119284.0,28593,12.5,72464.3,1.95,0.41,0.41,0,*75
1521119285.21,28594,12.5,72462.0,1.95,0.37,0.41,0,*73
1521119286.42,28595,12.5,72462.0,1.95,0.41,0.47,0,*75
1521119287.67,28596,12.5,72460.0,1.93,0.41,0.47,0,*70
1521119288.91,28597,12.5,72464.5,1.93,0.41,0.47,0,*71
1521119290.12,28598,12.5,72462.8,1.95,0.37,0.41,0,*7F
1521119291.34,28599,12.5,72462.8,1.95,0.41,0.47,0,*79
1521119292.56,28600,12.5,72462.3,1.95,0.41,0.47,0,*7A
1521119293.77,28601,12.5,72462.0,1.95,0.41,0.41,0,*7D
1521119295.01,28602,12.5,72462.8,1.93,0.37,0.41,0,*79
1521119296.24,28603,12.5,72460.8,1.93,0.37,0.41,0,*78
1521119297.46,28604,12.5,72462.0,1.95,0.33,0.41,0,*7D
1521119298.66,28605,12.5,72462.0,1.95,0.33,0.41,0,*7C
1521119299.87,28606,12.5,72462.3,1.95,0.37,0.41,0,*7B
1521119301.08,28607,12.5,72464.3,1.95,0.33,0.41,0,*7E
1521119302.3,28608,12.5,72464.0,1.95,0.37,0.37,0,*74
1521119303.53,28609,12.5,72464.8,1.93,0.33,0.37,0,*77
1521119304.77,28610,12.5,72464.3,1.93,0.37,0.37,0,*7B
1521119306.01,28611,12.5,72466.0,1.93,0.33,0.41,0,*7F
1521119307.25,28612,12.5,72466.5,1.93,0.37,0.47,0,*7E
1521119308.49,28613,12.5,72460.0,1.93,0.37,0.41,0,*79
1521119309.72,28614,12.5,72462.5,1.93,0.37,0.41,0,*7E
1521119310.96,28615,12.5,72466.0,1.93,0.33,0.41,0,*7B
1521119312.2,28616,12.5,72462.8,1.93,0.37,0.37,0,*7D
1521119313.43,28617,12.5,72464.3,1.93,0.37,0.41,0,*7D
1521119314.67,28618,12.5,72464.3,1.93,0.41,0.41,0,*73
1521119315.91,28619,12.5,72466.0,1.93,0.33,0.37,0,*76
1521119317.14,28620,12.5,72462.3,1.93,0.37,0.41,0,*79
1521119318.38,28621,12.5,72466.5,1.93,0.41,0.41,0,*79
1521119319.62,28622,12.5,72462.8,1.93,0.37,0.33,0,*7E
1521119320.85,28623,12.5,72466.8,1.93,0.33,0.33,0,*7B
1521119322.09,28624,12.5,72464.3,1.93,0.33,0.37,0,*78
1521119323.33,28625,12.5,72460.0,1.93,0.37,0.37,0,*7D
1521119324.57,28626,12.5,72462.8,1.93,0.37,0.47,0,*79
1521119325.81,28627,12.5,72464.5,1.93,0.37,0.47,0,*78
1521119327.06,28628,12.5,72466.8,1.93,0.37,0.47,0,*77
1521119328.3,28629,12.5,72460.3,1.93,0.41,0.47,0,*77
1521119329.54,28630,12.5,72466.0,1.93,0.47,0.41,0,*7F
1521119330.79,28631,12.5,72466.0,1.93,0.47,0.47,0,*78
1521119332.03,28632,12.5,72462.8,1.93,0.41,0.47,0,*7D
1521119333.27,28633,12.5,72466.5,1.93,0.41,0.47,0,*7C
1521119334.49,28634,12.5,72466.5,1.95,0.41,0.47,0,*7D
1521119335.74,28635,12.5,72462.0,1.93,0.47,0.47,0,*7C
1521119336.97,28636,12.5,72460.5,1.93,0.37,0.41,0,*7E
1521119338.21,28637,12.56,72464.8,1.93,0.41,0.41,0,*7E